TimeCDT,TemperatureF,Dew PointF,Humidity,Sea Level PressureIn,VisibilityMPH,Wind Direction,Wind SpeedMPH,Gust SpeedMPH,PrecipitationIn,Events,Conditions,WindDirDegrees,DateUTC
12:12 AM,78.8,73.4,83,30.12,10.0,Calm,Calm,-,N/A,,Clear,0,2013-07-18 05:12:00
12:33 AM,78.8,73.4,83,30.12,10.0,Calm,Calm,-,N/A,,Clear,0,2013-07-18 05:33:00
12:52 AM,78.8,73.4,83,30.12,10.0,Calm,Calm,-,N/A,,Clear,0,2013-07-18 05:52:00
1:13 AM,78.8,71.6,78,30.11,10.0,Calm,Calm,-,N/A,,Clear,0,2013-07-18 06:13:00
1:33 AM,78.8,71.6,78,30.11,10.0,SSW,4.6,-,N/A,,Clear,200,2013-07-18 06:33:00
1:52 AM,78.8,71.6,78,30.11,10.0,SSW,3.5,-,N/A,,Clear,200,2013-07-18 06:52:00
2:13 AM,77.0,71.6,83,30.10,10.0,SSW,3.5,-,N/A,,Clear,200,2013-07-18 07:13:00
2:33 AM,77.0,71.6,83,30.10,10.0,Calm,Calm,-,N/A,,Clear,0,2013-07-18 07:33:00
2:52 AM,77.0,71.6,83,30.10,10.0,SSW,4.6,-,N/A,,Clear,200,2013-07-18 07:52:00
3:13 AM,77.0,71.6,83,30.09,10.0,Calm,Calm,-,N/A,,Clear,0,2013-07-18 08:13:00
3:33 AM,75.2,71.6,89,30.08,10.0,SSW,3.5,-,N/A,,Clear,210,2013-07-18 08:33:00
3:52 AM,75.2,71.6,89,30.08,10.0,SSW,3.5,-,N/A,,Clear,200,2013-07-18 08:52:00
4:13 AM,75.2,71.6,89,30.07,10.0,South,4.6,-,N/A,,Clear,190,2013-07-18 09:13:00
4:32 AM,75.2,71.6,89,30.06,10.0,SSW,4.6,-,N/A,,Clear,210,2013-07-18 09:32:00
4:53 AM,75.2,71.6,89,30.06,10.0,SW,3.5,-,N/A,,Clear,220,2013-07-18 09:53:00
5:13 AM,75.2,71.6,89,30.05,10.0,South,3.5,-,N/A,,Clear,190,2013-07-18 10:13:00
5:32 AM,75.2,71.6,89,30.05,10.0,Calm,Calm,-,N/A,,Clear,0,2013-07-18 10:32:00
5:53 AM,73.4,71.6,94,30.05,10.0,SSW,4.6,-,N/A,,Clear,200,2013-07-18 10:53:00
6:13 AM,75.2,71.6,89,30.05,10.0,SSW,3.5,-,N/A,,Clear,210,2013-07-18 11:13:00
6:33 AM,75.2,71.6,89,30.05,10.0,SSW,3.5,-,N/A,,Clear,200,2013-07-18 11:33:00
6:53 AM,75.2,71.6,89,30.04,10.0,SSW,3.5,-,N/A,,Clear,200,2013-07-18 11:53:00
7:13 AM,77.0,71.6,83,30.03,10.0,SSW,3.5,-,N/A,,Clear,200,2013-07-18 12:13:00
7:33 AM,78.8,71.6,78,30.03,10.0,SSW,5.8,-,N/A,,Clear,210,2013-07-18 12:33:00
7:53 AM,78.8,71.6,78,30.02,10.0,SSW,5.8,-,N/A,,Scattered Clouds,210,2013-07-18 12:53:00
8:13 AM,78.8,71.6,78,30.02,10.0,SSW,4.6,-,N/A,,Scattered Clouds,200,2013-07-18 13:13:00
8:33 AM,80.6,73.4,79,30.01,10.0,SW,4.6,-,N/A,,Scattered Clouds,230,2013-07-18 13:33:00
8:53 AM,82.4,73.4,74,30.01,10.0,SSW,5.8,-,N/A,,Scattered Clouds,210,2013-07-18 13:53:00
9:13 AM,82.4,73.4,74,29.99,10.0,SW,5.8,-,N/A,,Clear,220,2013-07-18 14:13:00
9:32 AM,84.2,73.4,70,29.99,10.0,SW,5.8,-,N/A,,Clear,220,2013-07-18 14:32:00
9:53 AM,84.2,71.6,66,29.98,10.0,SW,9.2,17.3,N/A,,Clear,230,2013-07-18 14:53:00
10:13 AM,86.0,73.4,66,29.98,10.0,WSW,5.8,16.1,N/A,,Clear,240,2013-07-18 15:13:00
10:32 AM,87.8,71.6,58,29.97,10.0,SW,9.2,17.3,N/A,,Clear,220,2013-07-18 15:32:00
10:53 AM,87.8,71.6,58,29.96,10.0,SW,9.2,-,N/A,,Clear,220,2013-07-18 15:53:00
11:13 AM,87.8,73.4,62,29.96,10.0,SW,6.9,19.6,N/A,,Clear,220,2013-07-18 16:13:00
11:32 AM,89.6,71.6,55,29.95,10.0,SSW,10.4,18.4,N/A,,Clear,210,2013-07-18 16:32:00
11:53 AM,89.6,71.6,55,29.95,10.0,SW,8.1,-,N/A,,Clear,230,2013-07-18 16:53:00
12:13 PM,89.6,71.6,55,29.94,10.0,SW,6.9,17.3,N/A,,Clear,220,2013-07-18 17:13:00
12:32 PM,91.4,71.6,52,29.94,10.0,SW,10.4,19.6,N/A,,Clear,220,2013-07-18 17:32:00
12:53 PM,91.4,69.8,49,29.93,10.0,SW,10.4,19.6,N/A,,Clear,220,2013-07-18 17:53:00
1:12 PM,91.4,69.8,49,29.93,10.0,WSW,8.1,18.4,N/A,,Clear,240,2013-07-18 18:12:00
1:33 PM,91.4,66.2,43,29.92,10.0,SW,10.4,21.9,N/A,,Clear,230,2013-07-18 18:33:00
1:53 PM,91.4,64.4,41,29.91,10.0,SW,9.2,21.9,N/A,,Clear,220,2013-07-18 18:53:00
2:12 PM,91.4,66.2,43,29.90,10.0,SW,9.2,23.0,N/A,,Clear,230,2013-07-18 19:12:00
2:33 PM,93.2,66.2,41,29.89,10.0,SW,9.2,19.6,N/A,,Clear,220,2013-07-18 19:33:00
2:53 PM,93.2,66.2,41,29.89,10.0,SSW,10.4,18.4,N/A,,Clear,210,2013-07-18 19:53:00
3:12 PM,93.2,64.4,38,29.88,10.0,SW,10.4,19.6,N/A,,Clear,220,2013-07-18 20:12:00
3:33 PM,93.2,64.4,38,29.88,10.0,SW,10.4,18.4,N/A,,Clear,220,2013-07-18 20:33:00
3:53 PM,93.2,64.4,38,29.87,10.0,SW,10.4,21.9,N/A,,Clear,220,2013-07-18 20:53:00
4:12 PM,93.2,66.2,41,29.86,10.0,SW,6.9,20.7,N/A,,Clear,220,2013-07-18 21:12:00
4:33 PM,93.2,66.2,41,29.85,10.0,SW,11.5,19.6,N/A,,Clear,220,2013-07-18 21:33:00
4:53 PM,91.4,66.2,43,29.84,10.0,SW,10.4,23.0,N/A,,Clear,220,2013-07-18 21:53:00
5:12 PM,91.4,69.8,49,29.83,10.0,SW,9.2,16.1,N/A,,Clear,220,2013-07-18 22:12:00
5:33 PM,91.4,66.2,43,29.83,10.0,SW,10.4,20.7,N/A,,Clear,230,2013-07-18 22:33:00
5:53 PM,91.4,68.0,46,29.82,10.0,SW,10.4,23.0,N/A,,Clear,220,2013-07-18 22:53:00
6:12 PM,91.4,68.0,46,29.81,10.0,SW,10.4,19.6,N/A,,Clear,220,2013-07-18 23:12:00
6:33 PM,91.4,69.8,49,29.81,10.0,SW,11.5,16.1,N/A,,Clear,220,2013-07-18 23:33:00
6:53 PM,91.4,69.8,49,29.80,10.0,SW,9.2,17.3,N/A,,Clear,220,2013-07-18 23:53:00
7:12 PM,89.6,69.8,52,29.80,10.0,SW,6.9,-,N/A,,Clear,230,2013-07-19 00:12:00
7:33 PM,89.6,69.8,52,29.80,10.0,SW,9.2,-,N/A,,Clear,230,2013-07-19 00:33:00
7:50 PM,89.6,69.8,52,29.80,10.0,SW,5.8,16.1,N/A,,Clear,220,2013-07-19 00:50:00
8:13 PM,87.8,69.8,55,29.79,10.0,SW,8.1,-,N/A,,Clear,230,2013-07-19 01:13:00
8:33 PM,87.8,69.8,55,29.79,10.0,SW,6.9,-,N/A,,Clear,220,2013-07-19 01:33:00
8:52 PM,86.0,69.8,58,29.79,10.0,SW,5.8,-,N/A,,Clear,220,2013-07-19 01:52:00
9:13 PM,84.2,69.8,62,29.78,10.0,SW,5.8,-,N/A,,Clear,220,2013-07-19 02:13:00
9:33 PM,84.2,69.8,62,29.78,10.0,Calm,Calm,-,N/A,,Clear,0,2013-07-19 02:33:00
9:52 PM,84.2,69.8,62,29.78,10.0,SSW,5.8,-,N/A,,Clear,210,2013-07-19 02:52:00
10:13 PM,82.4,69.8,66,29.78,10.0,SSW,4.6,-,N/A,,Clear,200,2013-07-19 03:13:00
10:32 PM,82.4,69.8,66,29.78,10.0,SSW,5.8,-,N/A,,Clear,210,2013-07-19 03:32:00
10:53 PM,82.4,69.8,66,29.77,10.0,SSW,5.8,-,N/A,,Clear,210,2013-07-19 03:53:00
11:13 PM,82.4,69.8,66,29.78,10.0,SSW,4.6,-,N/A,,Clear,210,2013-07-19 04:13:00
11:33 PM,82.4,69.8,66,29.78,10.0,SW,6.9,-,N/A,,Clear,220,2013-07-19 04:33:00
11:53 PM,82.4,69.8,66,29.78,10.0,SSW,8.1,-,N/A,,Clear,210,2013-07-19 04:53:00